Year,Month,Day,Hour,Minute,Value (Times are PST for windgust in km/hr)
2010,11,15,00,54,1.60
2010,11,15,00,55,1.60
2010,11,15,00,56,1.60
2010,11,15,00,58,1.60
2010,11,15,01,04,1.60
2010,11,15,01,13,1.60
2010,11,15,01,46,1.60
2010,11,15,01,48,1.60
2010,11,15,01,49,1.60
2010,11,15,01,50,1.60
2010,11,15,01,51,3.20
2010,11,15,01,52,3.20
2010,11,15,01,53,1.60
2010,11,15,01,54,1.60
2010,11,15,01,55,3.20
2010,11,15,01,56,3.20
2010,11,15,01,57,1.60
2010,11,15,01,58,3.20
2010,11,15,01,59,3.20
2010,11,15,02,00,1.60
2010,11,15,02,01,3.20
2010,11,15,02,02,4.80
2010,11,15,02,03,1.60
2010,11,15,02,06,1.60
2010,11,15,02,07,4.80
2010,11,15,02,08,4.80
2010,11,15,02,09,3.20
2010,11,15,02,10,3.20
2010,11,15,02,11,4.80
2010,11,15,02,12,3.20
2010,11,15,02,13,4.80
2010,11,15,02,14,3.20
2010,11,15,02,15,4.80
2010,11,15,02,16,4.80
2010,11,15,02,17,9.60
2010,11,15,02,18,8.10
2010,11,15,02,19,4.80
2010,11,15,02,20,4.80
2010,11,15,02,21,9.60
2010,11,15,02,22,9.60
2010,11,15,02,23,8.10
2010,11,15,02,24,9.60
2010,11,15,02,25,9.60
2010,11,15,02,26,8.10
2010,11,15,02,27,6.40
2010,11,15,02,28,8.10
2010,11,15,02,29,9.60
2010,11,15,02,30,6.40
2010,11,15,02,31,8.10
2010,11,15,02,32,4.80
2010,11,15,02,33,8.10
2010,11,15,02,34,9.60
2010,11,15,02,35,8.10
2010,11,15,02,36,6.40
2010,11,15,02,37,8.10
2010,11,15,02,38,4.80
2010,11,15,02,39,4.80
2010,11,15,02,40,4.80
2010,11,15,02,41,4.80
2010,11,15,02,42,4.80
2010,11,15,02,43,3.20
2010,11,15,02,44,3.20
2010,11,15,02,45,1.60
2010,11,15,02,46,4.80
2010,11,15,02,47,4.80
2010,11,15,02,48,3.20
2010,11,15,02,49,3.20
2010,11,15,02,50,1.60
2010,11,15,02,54,1.60
2010,11,15,02,55,1.60
2010,11,15,02,56,1.60
2010,11,15,02,57,1.60
2010,11,15,02,58,1.60
2010,11,15,03,02,1.60
2010,11,15,03,06,1.60
2010,11,15,03,35,1.60
2010,11,15,03,40,1.60
2010,11,15,03,42,1.60
2010,11,15,03,43,4.80
2010,11,15,03,44,1.60
2010,11,15,03,45,1.60
2010,11,15,03,46,1.60
2010,11,15,03,47,1.60
2010,11,15,03,48,4.80
2010,11,15,03,49,3.20
2010,11,15,03,50,3.20
2010,11,15,03,51,1.60
2010,11,15,03,52,6.40
2010,11,15,03,53,4.80
2010,11,15,03,54,9.60
2010,11,15,03,55,8.10
2010,11,15,03,56,4.80
2010,11,15,03,57,6.40
2010,11,15,03,58,9.60
2010,11,15,03,59,6.40
2010,11,15,04,00,8.10
2010,11,15,04,01,11.30
2010,11,15,04,02,9.60
2010,11,15,04,03,12.90
2010,11,15,04,04,8.10
2010,11,15,04,05,12.90
2010,11,15,04,06,16.10
2010,11,15,04,07,9.60
2010,11,15,04,08,16.10
2010,11,15,04,09,9.60
2010,11,15,04,10,12.90
2010,11,15,04,11,9.60
2010,11,15,04,12,6.40
2010,11,15,04,13,16.10
2010,11,15,04,14,11.30
2010,11,15,04,15,16.10
2010,11,15,04,16,16.10
2010,11,15,04,17,16.10
2010,11,15,04,18,11.30
2010,11,15,04,19,19.30
2010,11,15,04,20,14.50
2010,11,15,04,21,20.90
2010,11,15,04,22,14.50
2010,11,15,04,23,8.10
2010,11,15,04,24,14.50
2010,11,15,04,25,16.10
2010,11,15,04,26,8.10
2010,11,15,04,27,9.60
2010,11,15,04,28,11.30
2010,11,15,04,29,11.30
2010,11,15,04,30,12.90
2010,11,15,04,31,6.40
2010,11,15,04,32,14.50
2010,11,15,04,33,11.30
2010,11,15,04,34,14.50
2010,11,15,04,35,11.30
2010,11,15,04,36,17.70
2010,11,15,04,37,16.10
2010,11,15,04,38,11.30
2010,11,15,04,39,11.30
2010,11,15,04,40,9.60
2010,11,15,04,41,16.10
2010,11,15,04,42,14.50
2010,11,15,04,43,14.50
2010,11,15,04,44,11.30
2010,11,15,04,45,4.80
2010,11,15,04,46,19.30
2010,11,15,04,47,16.10
2010,11,15,04,48,11.30
2010,11,15,04,49,14.50
2010,11,15,04,50,9.60
2010,11,15,04,51,11.30
2010,11,15,04,52,11.30
2010,11,15,04,53,11.30
2010,11,15,04,54,8.10
2010,11,15,04,55,8.10
2010,11,15,04,56,12.90
2010,11,15,04,57,9.60
2010,11,15,04,58,11.30
2010,11,15,04,59,14.50
2010,11,15,05,00,14.50
2010,11,15,05,01,14.50
2010,11,15,05,02,11.30
2010,11,15,05,03,6.40
2010,11,15,05,04,11.30
2010,11,15,05,05,17.70
2010,11,15,05,06,19.30
2010,11,15,05,07,16.10
2010,11,15,05,08,14.50
2010,11,15,05,09,19.30
2010,11,15,05,10,16.10
2010,11,15,05,11,16.10
2010,11,15,05,12,17.70
2010,11,15,05,13,16.10
2010,11,15,05,14,17.70
2010,11,15,05,15,14.50
2010,11,15,05,16,16.10
2010,11,15,05,17,12.90
2010,11,15,05,18,16.10
2010,11,15,05,19,17.70
2010,11,15,05,20,16.10
2010,11,15,05,21,11.30
2010,11,15,05,22,16.10
2010,11,15,05,23,16.10
2010,11,15,05,24,16.10
2010,11,15,05,25,19.30
2010,11,15,05,26,19.30
2010,11,15,05,27,16.10
2010,11,15,05,28,11.30
2010,11,15,05,29,11.30
2010,11,15,05,30,14.50
2010,11,15,05,31,11.30
2010,11,15,05,32,12.90
2010,11,15,05,33,11.30
2010,11,15,05,34,16.10
2010,11,15,05,35,17.70
2010,11,15,05,36,8.10
2010,11,15,05,37,12.90
2010,11,15,05,38,9.60
2010,11,15,05,39,14.50
2010,11,15,05,40,16.10
2010,11,15,05,41,16.10
2010,11,15,05,42,14.50
2010,11,15,05,43,16.10
2010,11,15,05,44,14.50
2010,11,15,05,45,11.30
2010,11,15,05,46,17.70
2010,11,15,05,47,14.50
2010,11,15,05,48,11.30
2010,11,15,05,49,14.50
2010,11,15,05,50,9.60
2010,11,15,05,51,11.30
2010,11,15,05,52,14.50
2010,11,15,05,53,9.60
2010,11,15,05,54,8.10
2010,11,15,05,55,9.60
2010,11,15,05,56,12.90
2010,11,15,05,57,11.30
2010,11,15,05,58,11.30
2010,11,15,05,59,9.60
2010,11,15,06,00,9.60
2010,11,15,06,01,9.60
2010,11,15,06,02,11.30
2010,11,15,06,03,11.30
2010,11,15,06,04,8.10
2010,11,15,06,05,8.10
2010,11,15,06,06,9.60
2010,11,15,06,07,8.10
2010,11,15,06,08,11.30
2010,11,15,06,09,16.10
2010,11,15,06,10,11.30
2010,11,15,06,11,9.60
2010,11,15,06,12,17.70
2010,11,15,06,13,8.10
2010,11,15,06,14,9.60
2010,11,15,06,15,6.40
2010,11,15,06,16,8.10
2010,11,15,06,17,8.10
2010,11,15,06,18,9.60
2010,11,15,06,19,19.30
2010,11,15,06,20,11.30
2010,11,15,06,21,8.10
2010,11,15,06,22,8.10
2010,11,15,06,23,6.40
2010,11,15,06,24,8.10
2010,11,15,06,25,8.10
2010,11,15,06,26,8.10
2010,11,15,06,27,3.20
2010,11,15,06,28,3.20
2010,11,15,06,29,3.20
2010,11,15,06,30,3.20
2010,11,15,06,31,4.80
2010,11,15,06,32,8.10
2010,11,15,06,33,3.20
2010,11,15,06,34,3.20
2010,11,15,06,35,6.40
2010,11,15,06,36,8.10
2010,11,15,06,37,6.40
2010,11,15,06,38,4.80
2010,11,15,06,39,14.50
2010,11,15,06,40,11.30
2010,11,15,06,41,4.80
2010,11,15,06,42,8.10
2010,11,15,06,43,8.10
2010,11,15,06,44,8.10
2010,11,15,06,45,16.10
2010,11,15,06,46,14.50
2010,11,15,06,47,11.30
2010,11,15,06,48,11.30
2010,11,15,06,49,8.10
2010,11,15,06,50,6.40
2010,11,15,06,51,14.50
2010,11,15,06,52,9.60
2010,11,15,06,53,9.60
2010,11,15,06,54,8.10
2010,11,15,06,55,14.50
2010,11,15,06,56,16.10
2010,11,15,06,57,11.30
2010,11,15,06,58,6.40
2010,11,15,06,59,11.30
2010,11,15,07,00,12.90
2010,11,15,07,01,11.30
2010,11,15,07,02,9.60
2010,11,15,07,03,9.60
2010,11,15,07,04,16.10
2010,11,15,07,05,11.30
2010,11,15,07,06,11.30
2010,11,15,07,07,17.70
2010,11,15,07,08,16.10
2010,11,15,07,09,8.10
2010,11,15,07,10,11.30
2010,11,15,07,11,14.50
2010,11,15,07,12,14.50
2010,11,15,07,13,14.50
2010,11,15,07,14,14.50
2010,11,15,07,15,14.50
2010,11,15,07,16,11.30
2010,11,15,07,17,12.90
2010,11,15,07,18,12.90
2010,11,15,07,19,17.70
2010,11,15,07,20,9.60
2010,11,15,07,21,6.40
2010,11,15,07,22,20.90
2010,11,15,07,23,14.50
2010,11,15,07,24,11.30
2010,11,15,07,25,17.70
2010,11,15,07,26,9.60
2010,11,15,07,27,11.30
2010,11,15,07,28,9.60
2010,11,15,07,29,11.30
2010,11,15,07,30,12.90
2010,11,15,07,31,11.30
2010,11,15,07,32,9.60
2010,11,15,07,33,9.60
2010,11,15,07,34,9.60
2010,11,15,07,35,11.30
2010,11,15,07,36,14.50
2010,11,15,07,37,9.60
2010,11,15,07,38,6.40
2010,11,15,07,39,8.10
2010,11,15,07,40,11.30
2010,11,15,07,41,4.80
2010,11,15,07,42,14.50
2010,11,15,07,43,9.60
2010,11,15,07,44,16.10
2010,11,15,07,45,14.50
2010,11,15,07,46,8.10
2010,11,15,07,47,9.60
2010,11,15,07,48,11.30
2010,11,15,07,49,8.10
2010,11,15,07,50,4.80
2010,11,15,07,51,4.80
2010,11,15,07,52,8.10
2010,11,15,07,53,6.40
2010,11,15,07,54,8.10
2010,11,15,07,55,9.60
2010,11,15,07,56,8.10
2010,11,15,07,57,6.40
2010,11,15,07,58,4.80
2010,11,15,07,59,6.40
2010,11,15,08,00,4.80
2010,11,15,08,01,3.20
2010,11,15,08,02,3.20
2010,11,15,08,03,4.80
2010,11,15,08,04,3.20
2010,11,15,08,05,3.20
2010,11,15,08,06,11.30
2010,11,15,08,07,4.80
2010,11,15,08,08,3.20
2010,11,15,08,09,4.80
2010,11,15,08,10,4.80
2010,11,15,08,11,3.20
2010,11,15,08,12,4.80
2010,11,15,08,13,4.80
2010,11,15,08,14,4.80
2010,11,15,08,15,8.10
2010,11,15,08,16,4.80
2010,11,15,08,17,8.10
2010,11,15,08,18,6.40
2010,11,15,08,19,4.80
2010,11,15,08,20,4.80
2010,11,15,08,21,4.80
2010,11,15,08,22,6.40
2010,11,15,08,23,6.40
2010,11,15,08,24,4.80
2010,11,15,08,25,3.20
2010,11,15,08,26,4.80
2010,11,15,08,27,6.40
2010,11,15,08,28,6.40
2010,11,15,08,29,6.40
2010,11,15,08,30,4.80
2010,11,15,08,31,4.80
2010,11,15,08,32,8.10
2010,11,15,08,33,1.60
2010,11,15,08,34,3.20
2010,11,15,08,35,6.40
2010,11,15,08,36,9.60
2010,11,15,08,37,4.80
2010,11,15,08,38,9.60
2010,11,15,08,39,6.40
2010,11,15,08,40,11.30
2010,11,15,08,41,9.60
2010,11,15,08,42,9.60
2010,11,15,08,43,9.60
2010,11,15,08,44,8.10
2010,11,15,08,45,16.10
2010,11,15,08,46,9.60
2010,11,15,08,47,9.60
2010,11,15,08,48,9.60
2010,11,15,08,49,14.50
2010,11,15,08,50,12.90
2010,11,15,08,51,8.10
2010,11,15,08,52,11.30
2010,11,15,08,53,6.40
2010,11,15,08,54,14.50
2010,11,15,08,55,11.30
2010,11,15,08,56,9.60
2010,11,15,08,57,6.40
2010,11,15,08,58,11.30
2010,11,15,08,59,14.50
2010,11,15,09,00,12.90
2010,11,15,09,01,11.30
2010,11,15,09,02,14.50
2010,11,15,09,03,11.30
2010,11,15,09,04,14.50
2010,11,15,09,05,12.90
2010,11,15,09,06,11.30
2010,11,15,09,07,8.10
2010,11,15,09,08,9.60
2010,11,15,09,09,11.30
2010,11,15,09,10,9.60
2010,11,15,09,11,9.60
2010,11,15,09,12,9.60
2010,11,15,09,13,9.60
2010,11,15,09,14,8.10
2010,11,15,09,15,9.60
2010,11,15,09,16,9.60
2010,11,15,09,17,3.20
2010,11,15,09,18,8.10
2010,11,15,09,19,8.10
2010,11,15,09,20,8.10
2010,11,15,09,21,11.30
2010,11,15,09,22,9.60
2010,11,15,09,23,4.80
2010,11,15,09,24,6.40
2010,11,15,09,25,8.10
2010,11,15,09,26,6.40
2010,11,15,09,27,8.10
2010,11,15,09,28,8.10
2010,11,15,09,29,6.40
2010,11,15,09,30,4.80
2010,11,15,09,31,4.80
2010,11,15,09,32,8.10
2010,11,15,09,33,6.40
2010,11,15,09,34,4.80
2010,11,15,09,35,6.40
2010,11,15,09,36,8.10
2010,11,15,09,37,9.60
2010,11,15,09,38,1.60
2010,11,15,09,39,6.40
2010,11,15,09,40,6.40
2010,11,15,09,41,6.40
2010,11,15,09,42,4.80
2010,11,15,09,43,6.40
2010,11,15,09,44,8.10
2010,11,15,09,45,4.80
2010,11,15,09,46,14.50
2010,11,15,09,47,6.40
2010,11,15,09,48,6.40
2010,11,15,09,49,6.40
2010,11,15,09,50,8.10
2010,11,15,09,51,8.10
2010,11,15,09,52,14.50
2010,11,15,09,53,8.10
2010,11,15,09,54,8.10
2010,11,15,09,55,4.80
2010,11,15,09,56,3.20
2010,11,15,09,57,1.60
2010,11,15,09,58,4.80
2010,11,15,09,59,4.80
2010,11,15,10,00,3.20
2010,11,15,10,01,4.80
2010,11,15,10,02,8.10
2010,11,15,10,03,9.60
2010,11,15,10,04,3.20
2010,11,15,10,05,3.20
2010,11,15,10,06,6.40
2010,11,15,10,07,6.40
2010,11,15,10,08,3.20
2010,11,15,10,10,3.20
2010,11,15,10,11,1.60
2010,11,15,10,12,11.30
2010,11,15,10,13,9.60
2010,11,15,10,14,6.40
2010,11,15,10,15,6.40
2010,11,15,10,16,9.60
2010,11,15,10,17,4.80
2010,11,15,10,18,9.60
2010,11,15,10,19,8.10
2010,11,15,10,20,6.40
2010,11,15,10,21,6.40
2010,11,15,10,22,4.80
2010,11,15,10,23,4.80
2010,11,15,10,24,3.20
2010,11,15,10,25,3.20
2010,11,15,10,26,4.80
2010,11,15,10,27,4.80
2010,11,15,10,28,4.80
2010,11,15,10,29,3.20
2010,11,15,10,30,11.30
2010,11,15,10,31,6.40
2010,11,15,10,32,8.10
2010,11,15,10,33,8.10
2010,11,15,10,34,6.40
2010,11,15,10,35,9.60
2010,11,15,10,36,8.10
2010,11,15,10,37,9.60
2010,11,15,10,38,11.30
2010,11,15,10,39,6.40
2010,11,15,10,41,6.40
2010,11,15,10,42,6.40
2010,11,15,10,43,8.10
2010,11,15,10,44,9.60
2010,11,15,10,45,6.40
2010,11,15,10,46,11.30
2010,11,15,10,47,11.30
2010,11,15,10,48,9.60
2010,11,15,10,49,11.30
2010,11,15,10,50,6.40
2010,11,15,10,51,8.10
2010,11,15,10,52,6.40
2010,11,15,10,53,11.30
2010,11,15,10,54,4.80
2010,11,15,10,55,6.40
2010,11,15,10,56,6.40
2010,11,15,10,57,4.80
2010,11,15,10,58,6.40
2010,11,15,10,59,9.60
2010,11,15,11,00,8.10
2010,11,15,11,01,16.10
2010,11,15,11,02,8.10
2010,11,15,11,03,8.10
2010,11,15,11,04,9.60
2010,11,15,11,05,17.70
2010,11,15,11,06,11.30
2010,11,15,11,07,11.30
2010,11,15,11,08,11.30
2010,11,15,11,09,9.60
2010,11,15,11,10,8.10
2010,11,15,11,11,6.40
2010,11,15,11,12,9.60
2010,11,15,11,13,8.10
2010,11,15,11,14,8.10
2010,11,15,11,15,11.30
2010,11,15,11,16,9.60
2010,11,15,11,17,11.30
2010,11,15,11,18,11.30
2010,11,15,11,19,17.70
2010,11,15,11,20,16.10
2010,11,15,11,21,11.30
2010,11,15,11,22,8.10
2010,11,15,11,23,8.10
2010,11,15,11,24,4.80
2010,11,15,11,25,6.40
2010,11,15,11,26,8.10
2010,11,15,11,27,11.30
2010,11,15,11,28,4.80
2010,11,15,11,29,8.10
2010,11,15,11,30,8.10
2010,11,15,11,31,11.30
2010,11,15,11,32,8.10
2010,11,15,11,33,8.10
2010,11,15,11,34,14.50
2010,11,15,11,35,14.50
2010,11,15,11,36,8.10
2010,11,15,11,37,9.60
2010,11,15,11,38,9.60
2010,11,15,11,39,8.10
2010,11,15,11,40,6.40
2010,11,15,11,41,8.10
2010,11,15,11,42,6.40
2010,11,15,11,43,6.40
2010,11,15,11,44,12.90
2010,11,15,11,45,9.60
2010,11,15,11,46,8.10
2010,11,15,11,47,11.30
2010,11,15,11,48,6.40
2010,11,15,11,49,8.10
2010,11,15,11,50,9.60
2010,11,15,11,51,4.80
2010,11,15,11,52,6.40
2010,11,15,11,53,6.40
2010,11,15,11,54,4.80
2010,11,15,11,55,11.30
2010,11,15,11,56,14.50
2010,11,15,11,57,11.30
2010,11,15,11,58,11.30
2010,11,15,11,59,12.90
2010,11,15,12,00,14.50
2010,11,15,12,01,11.30
2010,11,15,12,02,14.50
2010,11,15,12,03,11.30
2010,11,15,12,04,11.30
2010,11,15,12,05,9.60
2010,11,15,12,06,9.60
2010,11,15,12,07,11.30
2010,11,15,12,08,11.30
2010,11,15,12,09,12.90
2010,11,15,12,10,16.10
2010,11,15,12,11,11.30
2010,11,15,12,12,9.60
2010,11,15,12,13,11.30
2010,11,15,12,14,8.10
2010,11,15,12,15,9.60
2010,11,15,12,16,12.90
2010,11,15,12,17,8.10
2010,11,15,12,18,9.60
2010,11,15,12,19,11.30
2010,11,15,12,20,14.50
2010,11,15,12,21,6.40
2010,11,15,12,22,11.30
2010,11,15,12,23,9.60
2010,11,15,12,24,14.50
2010,11,15,12,25,19.30
2010,11,15,12,26,14.50
2010,11,15,12,27,11.30
2010,11,15,12,28,9.60
2010,11,15,12,29,9.60
2010,11,15,12,30,6.40
2010,11,15,12,31,8.10
2010,11,15,12,32,6.40
2010,11,15,12,33,6.40
2010,11,15,12,34,4.80
2010,11,15,12,35,3.20
2010,11,15,12,36,4.80
2010,11,15,12,37,4.80
2010,11,15,12,38,8.10
2010,11,15,12,39,6.40
2010,11,15,12,40,4.80
2010,11,15,12,41,4.80
2010,11,15,12,42,4.80
2010,11,15,12,43,11.30
2010,11,15,12,44,11.30
2010,11,15,12,45,8.10
2010,11,15,12,46,11.30
2010,11,15,12,47,8.10
2010,11,15,12,48,8.10
2010,11,15,12,49,16.10
2010,11,15,12,50,16.10
2010,11,15,12,51,14.50
2010,11,15,12,52,16.10
2010,11,15,12,53,11.30
2010,11,15,12,54,11.30
2010,11,15,12,55,9.60
2010,11,15,12,56,9.60
2010,11,15,12,57,8.10
2010,11,15,12,58,9.60
2010,11,15,12,59,16.10
2010,11,15,13,00,14.50
2010,11,15,13,01,8.10
2010,11,15,13,02,11.30
2010,11,15,13,03,9.60
2010,11,15,13,04,8.10
2010,11,15,13,05,11.30
2010,11,15,13,06,11.30
2010,11,15,13,07,14.50
2010,11,15,13,08,14.50
2010,11,15,13,09,16.10
2010,11,15,13,10,17.70
2010,11,15,13,11,16.10
2010,11,15,13,12,11.30
2010,11,15,13,13,6.40
2010,11,15,13,14,14.50
2010,11,15,13,15,11.30
2010,11,15,13,16,6.40
2010,11,15,13,17,25.70
2010,11,15,13,18,20.90
2010,11,15,13,19,24.20
2010,11,15,13,20,17.70
2010,11,15,13,21,16.10
2010,11,15,13,22,17.70
2010,11,15,13,23,17.70
2010,11,15,13,24,17.70
2010,11,15,13,25,17.70
2010,11,15,13,26,25.70
2010,11,15,13,27,24.20
2010,11,15,13,28,17.70
2010,11,15,13,29,16.10
2010,11,15,13,30,16.10
2010,11,15,13,31,19.30
2010,11,15,13,32,16.10
2010,11,15,13,33,22.50
2010,11,15,13,34,19.30
2010,11,15,13,35,17.70
2010,11,15,13,36,17.70
2010,11,15,13,37,25.70
2010,11,15,13,38,19.30
2010,11,15,13,39,29.00
2010,11,15,13,40,27.40
2010,11,15,13,41,29.00
2010,11,15,13,42,25.70
2010,11,15,13,43,24.20
2010,11,15,13,44,22.50
2010,11,15,13,45,20.90
2010,11,15,13,46,35.40
2010,11,15,13,47,25.70
2010,11,15,13,48,24.20
2010,11,15,13,49,25.70
2010,11,15,13,50,25.70
2010,11,15,13,51,24.20
2010,11,15,13,52,19.30
2010,11,15,13,53,29.00
2010,11,15,13,54,24.20
2010,11,15,13,55,22.50
2010,11,15,13,56,16.10
2010,11,15,13,57,30.60
2010,11,15,13,58,30.60
2010,11,15,13,59,29.00
2010,11,15,14,00,25.70
2010,11,15,14,01,30.60
2010,11,15,14,02,19.30
2010,11,15,14,03,19.30
2010,11,15,14,04,38.60
2010,11,15,14,05,25.70
2010,11,15,14,06,29.00
2010,11,15,14,07,16.10
2010,11,15,14,08,35.40
2010,11,15,14,09,32.20
2010,11,15,14,10,27.40
2010,11,15,14,11,27.40
2010,11,15,14,12,25.70
2010,11,15,14,13,40.20
2010,11,15,14,14,29.00
2010,11,15,14,15,24.20
2010,11,15,14,16,22.50
2010,11,15,14,17,29.00
2010,11,15,14,18,22.50
2010,11,15,14,19,22.50
2010,11,15,14,20,20.90
2010,11,15,14,21,33.80
2010,11,15,14,22,32.20
2010,11,15,14,23,29.00
2010,11,15,14,24,20.90
2010,11,15,14,25,17.70
2010,11,15,14,26,22.50
2010,11,15,14,27,24.20
2010,11,15,14,28,19.30
2010,11,15,14,29,20.90
2010,11,15,14,30,14.50
2010,11,15,14,31,19.30
2010,11,15,14,32,33.80
2010,11,15,14,33,25.70
2010,11,15,14,34,24.20
2010,11,15,14,35,22.50
2010,11,15,14,36,22.50
2010,11,15,14,37,17.70
2010,11,15,14,38,11.30
2010,11,15,14,39,9.60
2010,11,15,14,40,14.50
2010,11,15,14,41,17.70
2010,11,15,14,42,16.10
2010,11,15,14,43,12.90
2010,11,15,14,44,6.40
2010,11,15,14,45,16.10
2010,11,15,14,46,8.10
2010,11,15,14,47,9.60
2010,11,15,14,48,17.70
2010,11,15,14,49,22.50
2010,11,15,14,50,14.50
2010,11,15,14,51,4.80
2010,11,15,14,52,11.30
2010,11,15,14,53,14.50
2010,11,15,14,54,11.30
2010,11,15,14,55,14.50
2010,11,15,14,56,9.60
2010,11,15,14,57,4.80
2010,11,15,14,58,12.90
2010,11,15,14,59,9.60
2010,11,15,15,00,12.90
2010,11,15,15,01,8.10
2010,11,15,15,02,11.30
2010,11,15,15,03,8.10
2010,11,15,15,04,6.40
2010,11,15,15,05,3.20
2010,11,15,15,06,8.10
2010,11,15,15,07,8.10
2010,11,15,15,08,9.60
2010,11,15,15,09,8.10
2010,11,15,15,10,9.60
2010,11,15,15,11,11.30
2010,11,15,15,12,12.90
2010,11,15,15,13,11.30
2010,11,15,15,14,11.30
2010,11,15,15,15,12.90
2010,11,15,15,16,11.30
2010,11,15,15,17,17.70
2010,11,15,15,18,9.60
2010,11,15,15,19,9.60
2010,11,15,15,20,17.70
2010,11,15,15,21,11.30
2010,11,15,15,22,11.30
2010,11,15,15,23,20.90
2010,11,15,15,24,17.70
2010,11,15,15,25,19.30
2010,11,15,15,26,22.50
2010,11,15,15,27,17.70
2010,11,15,15,28,16.10
2010,11,15,15,29,25.70
2010,11,15,15,30,16.10
2010,11,15,15,31,16.10
2010,11,15,15,32,11.30
2010,11,15,15,33,20.90
2010,11,15,15,34,16.10
2010,11,15,15,35,24.20
2010,11,15,15,36,19.30
2010,11,15,15,37,19.30
2010,11,15,15,38,22.50
2010,11,15,15,39,29.00
2010,11,15,15,40,27.40
2010,11,15,15,41,22.50
2010,11,15,15,42,14.50
2010,11,15,15,43,19.30
2010,11,15,15,44,22.50
2010,11,15,15,45,17.70
2010,11,15,15,46,20.90
2010,11,15,15,47,20.90
2010,11,15,15,48,25.70
2010,11,15,15,49,29.00
2010,11,15,15,50,25.70
2010,11,15,15,51,19.30
2010,11,15,15,52,25.70
2010,11,15,15,53,27.40
2010,11,15,15,54,33.80
2010,11,15,15,55,32.20
2010,11,15,15,56,30.60
2010,11,15,15,57,33.80
2010,11,15,15,58,33.80
2010,11,15,15,59,41.80
2010,11,15,16,00,30.60
2010,11,15,16,01,27.40
2010,11,15,16,02,37.00
2010,11,15,16,03,37.00
2010,11,15,16,04,24.20
2010,11,15,16,05,27.40
2010,11,15,16,06,22.50
2010,11,15,16,07,30.60
2010,11,15,16,08,30.60
2010,11,15,16,09,41.80
2010,11,15,16,10,49.90
2010,11,15,16,11,24.20
2010,11,15,16,12,35.40
2010,11,15,16,13,48.30
2010,11,15,16,14,37.00
2010,11,15,16,15,27.40
2010,11,15,16,16,32.20
2010,11,15,16,17,22.50
2010,11,15,16,18,20.90
2010,11,15,16,19,24.20
2010,11,15,16,20,22.50
2010,11,15,16,21,14.50
2010,11,15,16,22,22.50
2010,11,15,16,23,27.40
2010,11,15,16,24,24.20
2010,11,15,16,25,37.00
2010,11,15,16,26,33.80
2010,11,15,16,27,35.40
2010,11,15,16,28,25.70
2010,11,15,16,29,29.00
2010,11,15,16,30,37.00
2010,11,15,16,31,33.80
2010,11,15,16,32,29.00
2010,11,15,16,33,35.40
2010,11,15,16,34,20.90
2010,11,15,16,35,30.60
2010,11,15,16,36,30.60
2010,11,15,16,37,32.20
2010,11,15,16,38,24.20
2010,11,15,16,39,24.20
2010,11,15,16,40,29.00
2010,11,15,16,41,29.00
2010,11,15,16,42,32.20
2010,11,15,16,43,33.80
2010,11,15,16,44,32.20
2010,11,15,16,45,32.20
2010,11,15,16,46,35.40
2010,11,15,16,47,30.60
2010,11,15,16,48,24.20
2010,11,15,16,49,38.60
2010,11,15,16,50,35.40
2010,11,15,16,51,29.00
2010,11,15,16,52,35.40
2010,11,15,16,53,32.20
2010,11,15,16,54,32.20
2010,11,15,16,55,25.70
2010,11,15,16,56,32.20
2010,11,15,16,57,29.00
2010,11,15,16,58,32.20
2010,11,15,16,59,33.80
2010,11,15,17,00,27.40
2010,11,15,17,01,27.40
2010,11,15,17,02,25.70
2010,11,15,17,03,38.60
2010,11,15,17,04,29.00
2010,11,15,17,05,25.70
2010,11,15,17,06,24.20
2010,11,15,17,07,24.20
2010,11,15,17,08,24.20
2010,11,15,17,09,22.50
2010,11,15,17,10,30.60
2010,11,15,17,11,20.90
2010,11,15,17,12,22.50
2010,11,15,17,13,22.50
2010,11,15,17,14,29.00
2010,11,15,17,15,37.00
2010,11,15,17,16,30.60
2010,11,15,17,17,20.90
2010,11,15,17,18,22.50
2010,11,15,17,19,32.20
2010,11,15,17,20,25.70
2010,11,15,17,21,29.00
2010,11,15,17,22,25.70
2010,11,15,17,23,22.50
2010,11,15,17,24,35.40
2010,11,15,17,25,25.70
2010,11,15,17,26,29.00
2010,11,15,17,27,27.40
2010,11,15,17,28,25.70
2010,11,15,17,29,33.80
2010,11,15,17,30,25.70
2010,11,15,17,31,29.00
2010,11,15,17,32,35.40
2010,11,15,17,33,35.40
2010,11,15,17,34,25.70
2010,11,15,17,35,24.20
2010,11,15,17,36,17.70
2010,11,15,17,37,24.20
2010,11,15,17,38,25.70
2010,11,15,17,39,24.20
2010,11,15,17,40,20.90
2010,11,15,17,41,14.50
2010,11,15,17,42,24.20
2010,11,15,17,43,37.00
2010,11,15,17,44,25.70
2010,11,15,17,45,24.20
2010,11,15,17,46,33.80
2010,11,15,17,47,32.20
2010,11,15,17,48,29.00
2010,11,15,17,49,27.40
2010,11,15,17,50,27.40
2010,11,15,17,51,29.00
2010,11,15,17,52,20.90
2010,11,15,17,53,33.80
2010,11,15,17,54,25.70
2010,11,15,17,55,25.70
2010,11,15,17,56,25.70
2010,11,15,17,57,25.70
2010,11,15,17,58,25.70
2010,11,15,17,59,29.00
2010,11,15,18,00,25.70
2010,11,15,18,01,27.40
2010,11,15,18,02,22.50
2010,11,15,18,03,33.80
2010,11,15,18,04,27.40
2010,11,15,18,05,32.20
2010,11,15,18,06,25.70
2010,11,15,18,07,22.50
2010,11,15,18,08,16.10
2010,11,15,18,09,20.90
2010,11,15,18,10,25.70
2010,11,15,18,11,27.40
2010,11,15,18,12,19.30
2010,11,15,18,13,24.20
2010,11,15,18,14,20.90
2010,11,15,18,15,16.10
2010,11,15,18,16,22.50
2010,11,15,18,17,22.50
2010,11,15,18,18,20.90
2010,11,15,18,19,35.40
2010,11,15,18,20,29.00
2010,11,15,18,21,30.60
2010,11,15,18,22,32.20
2010,11,15,18,23,29.00
2010,11,15,18,24,29.00
2010,11,15,18,25,30.60
2010,11,15,18,26,32.20
2010,11,15,18,27,25.70
2010,11,15,18,28,22.50
2010,11,15,18,29,22.50
2010,11,15,18,30,33.80
2010,11,15,18,31,27.40
2010,11,15,18,32,19.30
2010,11,15,18,33,32.20
2010,11,15,18,34,54.70
2010,11,15,18,35,41.80
2010,11,15,18,36,33.80
2010,11,15,18,37,27.40
2010,11,15,18,38,30.60
2010,11,15,18,39,24.20
2010,11,15,18,40,35.40
2010,11,15,18,41,38.60
2010,11,15,18,42,37.00
2010,11,15,18,43,22.50
2010,11,15,18,44,25.70
2010,11,15,18,45,27.40
2010,11,15,18,46,22.50
2010,11,15,18,47,32.20
2010,11,15,18,48,38.60
2010,11,15,18,49,41.80
2010,11,15,18,50,45.10
2010,11,15,18,51,32.20
2010,11,15,18,52,38.60
2010,11,15,18,53,32.20
2010,11,15,18,54,25.70
2010,11,15,18,55,40.20
2010,11,15,18,56,40.20
2010,11,15,18,57,25.70
2010,11,15,18,58,37.00
2010,11,15,18,59,53.10
2010,11,15,19,00,45.10
2010,11,15,19,01,40.20
2010,11,15,19,02,29.00
2010,11,15,19,03,25.70
2010,11,15,19,04,30.60
2010,11,15,19,05,32.20
2010,11,15,19,06,37.00
2010,11,15,19,07,38.60
2010,11,15,19,08,32.20
2010,11,15,19,09,37.00
2010,11,15,19,10,56.30
2010,11,15,19,11,41.80
2010,11,15,19,12,56.30
2010,11,15,19,13,56.30
2010,11,15,19,14,51.50
2010,11,15,19,15,64.40
2010,11,15,19,16,62.70
2010,11,15,19,17,53.10
2010,11,15,19,18,66.00
2010,11,15,19,19,70.80
2010,11,15,19,20,45.10
2010,11,15,19,21,38.60
2010,11,15,19,22,38.60
2010,11,15,19,23,51.50
2010,11,15,19,24,51.50
2010,11,15,19,25,66.00
2010,11,15,19,26,67.60
2010,11,15,19,27,56.30
2010,11,15,19,28,53.10
2010,11,15,19,29,51.50
2010,11,15,19,30,46.70
2010,11,15,19,31,77.30
2010,11,15,19,32,62.70
2010,11,15,19,33,61.20
2010,11,15,19,34,77.30
2010,11,15,19,35,51.50
2010,11,15,19,36,67.60
2010,11,15,19,37,64.40
2010,11,15,19,38,59.50
2010,11,15,19,39,41.80
2010,11,15,19,40,51.50
2010,11,15,19,41,41.80
2010,11,15,19,42,53.10
2010,11,15,19,43,61.20
2010,11,15,19,44,72.40
2010,11,15,19,45,64.40
2010,11,15,19,46,56.30
2010,11,15,19,47,54.70
2010,11,15,19,48,46.70
2010,11,15,19,49,41.80
2010,11,15,19,50,48.30
2010,11,15,19,51,48.30
2010,11,15,19,52,53.10
2010,11,15,19,53,51.50
2010,11,15,19,54,57.90
2010,11,15,19,55,62.70
2010,11,15,19,56,41.80
2010,11,15,19,57,46.70
2010,11,15,19,58,53.10
2010,11,15,19,59,41.80
2010,11,15,20,00,30.60
2010,11,15,20,01,53.10
2010,11,15,20,02,51.50
2010,11,15,20,03,72.40
2010,11,15,20,04,78.80
2010,11,15,20,05,53.10